EN

Hourly Weather Bolshie Kirilly

Today, 22 October, Thursday

Time Temperature Precipitation Wind Pressure Humidity
00:00 +5°C° 0 mm 2 mps 746 mmHg 96%
01:00 +6°C° 0 mm 1 mps 746 mmHg 96%
02:00 +6°C° 0 mm 1 mps 746 mmHg 94%
03:00 +6°C° 0 mm 1 mps 746 mmHg 94%
04:00 +4°C° 0 mm 2 mps 746 mmHg 95%
05:00 +4°C° 0 mm 2 mps 745 mmHg 95%
06:00 +5°C° 0 mm 2 mps 745 mmHg 93%
07:00 +4°C° 0 mm 3 mps 745 mmHg 91%
08:00 +5°C° 0 mm 4 mps 745 mmHg 89%
09:00 +5°C° 0.1 mm 4 mps 744 mmHg 89%
10:00 +6°C° 0.1 mm 4 mps 744 mmHg 90%
11:00 +6°C° 0.1 mm 4 mps 744 mmHg 90%
12:00 +6°C° 0.2 mm 4 mps 744 mmHg 89%
13:00 +7°C° 0.2 mm 5 mps 743 mmHg 89%
14:00 +7°C° 0.2 mm 5 mps 743 mmHg 88%
15:00 +7°C° 0 mm 5 mps 742 mmHg 87%
16:00 +8°C° 0 mm 5 mps 742 mmHg 87%
17:00 +8°C° 0 mm 5 mps 741 mmHg 86%
18:00 +8°C° 0 mm 5 mps 741 mmHg 87%
19:00 +8°C° 0 mm 5 mps 741 mmHg 89%
20:00 +8°C° 0 mm 5 mps 741 mmHg 90%
21:00 +9°C° 0 mm 5 mps 741 mmHg 89%
22:00 +9°C° 0 mm 6 mps 741 mmHg 89%
23:00 +9°C° 0 mm 6 mps 741 mmHg 89%

Tomorrow, 23 October, Friday

Time Temperature Precipitation Wind Pressure Humidity
00:00 +9°C° 0 mm 6 mps 741 mmHg 89%
01:00 +9°C° 0 mm 6 mps 742 mmHg 90%
02:00 +9°C° 0 mm 6 mps 742 mmHg 90%
03:00 +9°C° 0 mm 5 mps 742 mmHg 92%
04:00 +9°C° 0 mm 5 mps 742 mmHg 93%
05:00 +8°C° 0 mm 5 mps 742 mmHg 94%
06:00 +9°C° 0 mm 5 mps 742 mmHg 94%
07:00 +9°C° 0 mm 5 mps 742 mmHg 94%
08:00 +9°C° 0 mm 5 mps 742 mmHg 95%
09:00 +10°C° 0 mm 5 mps 742 mmHg 91%
10:00 +10°C° 0 mm 5 mps 742 mmHg 88%
11:00 +12°C° 0 mm 5 mps 742 mmHg 84%
12:00 +13°C° 0 mm 5 mps 741 mmHg 83%
13:00 +13°C° 0 mm 5 mps 741 mmHg 82%
14:00 +13°C° 0 mm 5 mps 740 mmHg 81%
15:00 +13°C° 1 mm 5 mps 740 mmHg 84%
16:00 +12°C° 1 mm 5 mps 740 mmHg 88%
17:00 +12°C° 1 mm 5 mps 739 mmHg 92%
18:00 +12°C° 0.5 mm 5 mps 739 mmHg 91%
19:00 +12°C° 0.5 mm 5 mps 740 mmHg 91%
20:00 +12°C° 0.5 mm 5 mps 740 mmHg 91%
21:00 +10°C° 0 mm 5 mps 740 mmHg 92%
22:00 +11°C° 0 mm 4 mps 740 mmHg 92%
23:00 +11°C° 0 mm 4 mps 740 mmHg 93%

Day after tomorrow, 24 October, Saturday

Time Temperature Precipitation Wind Pressure Humidity
00:00 +10°C° 0 mm 4 mps 740 mmHg 94%
01:00 +9°C° 0 mm 3 mps 740 mmHg 95%
02:00 +9°C° 0 mm 3 mps 741 mmHg 96%
03:00 +8°C° 0 mm 3 mps 741 mmHg 96%
04:00 +8°C° 0 mm 3 mps 741 mmHg 96%
05:00 +8°C° 0 mm 2 mps 741 mmHg 97%
06:00 +8°C° 0 mm 2 mps 741 mmHg 96%
07:00 +8°C° 0 mm 2 mps 741 mmHg 95%
08:00 +8°C° 0 mm 2 mps 742 mmHg 94%
09:00 +9°C° 0 mm 2 mps 742 mmHg 90%
10:00 +10°C° 0 mm 2 mps 742 mmHg 86%
11:00 +12°C° 0 mm 2 mps 742 mmHg 82%
12:00 +12°C° 0 mm 2 mps 742 mmHg 81%
13:00 +12°C° 0 mm 2 mps 742 mmHg 80%
14:00 +11°C° 0 mm 3 mps 742 mmHg 79%
15:00 +12°C° 0 mm 2 mps 742 mmHg 83%
16:00 +10°C° 0 mm 2 mps 741 mmHg 86%
17:00 +9°C° 0 mm 2 mps 741 mmHg 90%
18:00 +9°C° 0.2 mm 2 mps 741 mmHg 91%
19:00 +9°C° 0.2 mm 2 mps 742 mmHg 92%
20:00 +9°C° 0.2 mm 2 mps 742 mmHg 93%
21:00 +10°C° 1.4 mm 1 mps 742 mmHg 94%
22:00 +10°C° 1.4 mm 1 mps 742 mmHg 95%
23:00 +9°C° 1.4 mm 1 mps 741 mmHg 96%

, 25 October, Sunday

Time Temperature Precipitation Wind Pressure Humidity
00:00 +9°C° 0 mm 1 mps 741 mmHg 95%
01:00 +9°C° 0 mm 1 mps 742 mmHg 95%
02:00 +8°C° 0 mm 1 mps 742 mmHg 95%
03:00 +7°C° 0.1 mm 2 mps 742 mmHg 95%
04:00 +7°C° 0.1 mm 3 mps 742 mmHg 94%
05:00 +7°C° 0.1 mm 3 mps 742 mmHg 94%
06:00 +7°C° 0 mm 4 mps 743 mmHg 93%
07:00 +7°C° 0 mm 4 mps 743 mmHg 92%
08:00 +7°C° 0 mm 4 mps 743 mmHg 91%
09:00 +8°C° 0 mm 4 mps 744 mmHg 86%
10:00 +10°C° 0 mm 4 mps 744 mmHg 81%
11:00 +10°C° 0 mm 5 mps 745 mmHg 76%
12:00 +10°C° 0 mm 5 mps 745 mmHg 75%
13:00 +11°C° 0 mm 4 mps 745 mmHg 74%
14:00 +11°C° 0 mm 4 mps 746 mmHg 73%
15:00 +10°C° 0 mm 4 mps 746 mmHg 76%
16:00 +9°C° 0 mm 3 mps 747 mmHg 79%
17:00 +9°C° 0 mm 3 mps 747 mmHg 82%
18:00 +8°C° 0 mm 2 mps 748 mmHg 82%
19:00 +8°C° 0 mm 2 mps 748 mmHg 82%
20:00 +8°C° 0 mm 2 mps 749 mmHg 82%
21:00 +8°C° 0 mm 1 mps 749 mmHg 84%
22:00 +8°C° 0 mm 1 mps 749 mmHg 86%
23:00 +7°C° 0 mm 1 mps 749 mmHg 88%

25 October, Sunday

Time Temperature Precipitation Wind Pressure Humidity
00:00 +9°C° 0 mm 1 mps 741 mmHg 95%
01:00 +9°C° 0 mm 1 mps 742 mmHg 95%
02:00 +8°C° 0 mm 1 mps 742 mmHg 95%
03:00 +7°C° 0.1 mm 2 mps 742 mmHg 95%
04:00 +7°C° 0.1 mm 3 mps 742 mmHg 94%
05:00 +7°C° 0.1 mm 3 mps 742 mmHg 94%
06:00 +7°C° 0 mm 4 mps 743 mmHg 93%
07:00 +7°C° 0 mm 4 mps 743 mmHg 92%
08:00 +7°C° 0 mm 4 mps 743 mmHg 91%
09:00 +8°C° 0 mm 4 mps 744 mmHg 86%
10:00 +10°C° 0 mm 4 mps 744 mmHg 81%
11:00 +10°C° 0 mm 5 mps 745 mmHg 76%
12:00 +10°C° 0 mm 5 mps 745 mmHg 75%
13:00 +11°C° 0 mm 4 mps 745 mmHg 74%
14:00 +11°C° 0 mm 4 mps 746 mmHg 73%
15:00 +10°C° 0 mm 4 mps 746 mmHg 76%
16:00 +9°C° 0 mm 3 mps 747 mmHg 79%
17:00 +9°C° 0 mm 3 mps 747 mmHg 82%
18:00 +8°C° 0 mm 2 mps 748 mmHg 82%
19:00 +8°C° 0 mm 2 mps 748 mmHg 82%
20:00 +8°C° 0 mm 2 mps 749 mmHg 82%
21:00 +8°C° 0 mm 1 mps 749 mmHg 84%
22:00 +8°C° 0 mm 1 mps 749 mmHg 86%
23:00 +7°C° 0 mm 1 mps 749 mmHg 88%

26 October, Monday

Time Temperature Precipitation Wind Pressure Humidity
00:00 +7°C° 0 mm 1 mps 750 mmHg 89%
01:00 +5°C° 0 mm 0 mps 750 mmHg 89%
02:00 +5°C° 0 mm 0 mps 750 mmHg 90%
03:00 +5°C° 0 mm 0 mps 750 mmHg 90%
04:00 +5°C° 0 mm 0 mps 750 mmHg 90%
05:00 +6°C° 0 mm 1 mps 751 mmHg 90%
06:00 +6°C° 0 mm 1 mps 751 mmHg 89%
07:00 +6°C° 0 mm 1 mps 751 mmHg 88%
08:00 +6°C° 0 mm 1 mps 751 mmHg 87%
09:00 +7°C° 0 mm 1 mps 752 mmHg 83%
10:00 +7°C° 0 mm 2 mps 752 mmHg 79%
11:00 +8°C° 0 mm 2 mps 752 mmHg 74%
12:00 +9°C° 0 mm 2 mps 752 mmHg 74%
13:00 +9°C° 0 mm 2 mps 752 mmHg 73%
14:00 +9°C° 0 mm 2 mps 752 mmHg 72%
15:00 +8°C° 0 mm 2 mps 751 mmHg 77%
16:00 +7°C° 0 mm 2 mps 751 mmHg 82%
17:00 +6°C° 0 mm 2 mps 751 mmHg 87%
18:00 +6°C° 0 mm 2 mps 751 mmHg 88%
19:00 +5°C° 0 mm 2 mps 751 mmHg 89%
20:00 +5°C° 0 mm 2 mps 751 mmHg 90%
21:00 +4°C° 0 mm 3 mps 751 mmHg 91%
22:00 +4°C° 0 mm 3 mps 751 mmHg 91%
23:00 +4°C° 0 mm 3 mps 751 mmHg 91%

27 October, Tuesday

Time Temperature Precipitation Wind Pressure Humidity
00:00 +3°C° 0 mm 3 mps 751 mmHg 91%
01:00 +3°C° 0 mm 3 mps 751 mmHg 91%
02:00 +3°C° 0 mm 3 mps 751 mmHg 91%
03:00 +3°C° 0 mm 3 mps 751 mmHg 91%
04:00 +3°C° 0 mm 3 mps 751 mmHg 90%
05:00 +3°C° 0 mm 3 mps 751 mmHg 90%
06:00 +4°C° 0 mm 4 mps 751 mmHg 88%
07:00 +4°C° 0 mm 4 mps 751 mmHg 86%
08:00 +5°C° 0 mm 4 mps 751 mmHg 84%
09:00 +5°C° 0 mm 4 mps 751 mmHg 82%
10:00 +6°C° 0 mm 4 mps 751 mmHg 80%
11:00 +7°C° 0 mm 4 mps 751 mmHg 77%
12:00 +7°C° 0 mm 4 mps 751 mmHg 78%
13:00 +7°C° 0 mm 4 mps 751 mmHg 80%
14:00 +6°C° 0 mm 4 mps 751 mmHg 81%
15:00 +7°C° 0 mm 4 mps 750 mmHg 81%
16:00 +7°C° 0 mm 4 mps 750 mmHg 81%
17:00 +7°C° 0 mm 4 mps 750 mmHg 81%
18:00 +7°C° 0 mm 4 mps 750 mmHg 81%
19:00 +7°C° 0 mm 4 mps 750 mmHg 82%
20:00 +7°C° 0 mm 4 mps 750 mmHg 82%
21:00 +8°C° 0 mm 3 mps 750 mmHg 83%
22:00 +8°C° 0 mm 3 mps 750 mmHg 83%
23:00 +8°C° 0 mm 3 mps 750 mmHg 84%
Show more